[[{"header":{"parameterUnit":"m.s-1","parameterCategory":1,"la1":30.2991,"la2":30.254,"lo1":-89.0895,"lo2":-89.0444,"dy":0.0017,"dx":0.0017,"nx":28,"ny":28,"refTime":"2023-10-30T09:00:00:Z","depth":0,"parameterNumber":2,"parameterNumberName":"U-component_of_WINDS"},"data":[0,0,0,0,0,0,0,0,0,0,0,0,0,0,0,0,0,0,0,0,0,0,0,0,0,0,0,0,0,0,0,0,0,0,0,0,0,0,0,0,0,0,0,0,0,0,0,0,0,0,0,0,0,0,0,0,0,0,0.2153,0.2152,0,0.2056,0.2055,0.2053,0.2036,0.2037,0.2037,0.2038,0.1935,0.1932,0.1928,0,0,0,0,0,0,0,0,0,0,0,0,0,0.2324,0.2321,0.2154,0.2152,0.2151,0.2056,0.2054,0.2053,0.2036,0.2037,0.2038,0.2039,0.1936,0.1932,0.1928,0,0,0,0,0,0,0,0,0,0,0,0,0,0.224,0.232,0.2154,0.2131,0.2128,0.2056,0.2054,0.2053,0.2035,0.2037,0.2038,0.2039,0.1938,0.1933,0.1927,0.187,0,0,0.1911,0.1909,0,0,0,0,0,0,0,0,0.2245,0.2234,0.2136,0.2132,0.2129,0.2059,0.2077,0.1992,0.2035,0.207,0.2038,0.204,0.1975,0.1967,0.1946,0.1866,0.1861,0.1911,0.1908,0.1905,0.1904,0,0,0,0,0,0,0,0.2251,0.2238,0.2115,0.2134,0.213,0.2125,0.2115,0.206,0.2017,0.2067,0.2066,0.2055,0.1974,0.1951,0.1943,0.186,0.1911,0.1906,0.1903,0.1901,0.1729,0.1727,0,0,0,0,0,0,0.2261,0.2243,0.2118,0.2112,0.2191,0.2121,0.2109,0.208,0.2018,0.2009,0.2054,0.2054,0.1959,0.1949,0.194,0.1869,0.1905,0.19,0.1897,0.173,0.1728,0.1727,0,0,0,0,0,0,0.2265,0.225,0.2122,0.2177,0.216,0.2117,0.2084,0.2078,0.2055,0.2007,0.1999,0.2039,0.196,0.1947,0.1888,0.1865,0.1898,0.1893,0.1732,0.1729,0.1728,0.1727,0,0,0,0,0,0,0.2269,0.2251,0.2229,0.2177,0.2157,0.2072,0.2083,0.2075,0.2046,0.2046,0.1991,0.1983,0.196,0.1896,0.1883,0.1858,0.1889,0.1734,0.1731,0.1728,0.1729,0.1725,0.1722,0,0,0,0,0,0.2276,0.2232,0.2228,0.2213,0.2129,0.2071,0.206,0.2035,0.2045,0.2022,0.1992,0.1985,0.187,0.189,0.1875,0.1849,0.1735,0.1732,0.1728,0.173,0.1726,0.1722,0,0,0,0,0,0,0.2282,0.2225,0.222,0.2158,0.212,0.2068,0.2039,0.2031,0.1988,0.1989,0.1959,0.1947,0.189,0.1864,0.1887,0.1791,0.1803,0.1797,0.181,0.1805,0.1802,0.1809,0.1885,0,0,0,0,0,0.2277,0.2235,0.2187,0.2137,0.2119,0.2082,0.2056,0.204,0.1999,0.1982,0.1947,0.1906,0.1861,0.1832,0.1788,0.1726,0.1713,0.17,0.1697,0.1694,0.1689,0.1654,0.1648,0.1716,0.1716,0.1716,0,0,0.2264,0.2228,0.2203,0.2138,0.2106,0.2063,0.2068,0.2022,0.199,0.1974,0.1917,0.189,0.1843,0.1783,0.1754,0.1759,0.1667,0.169,0.1689,0.1684,0.165,0.1644,0.1638,0.1714,0.1714,0.1715,0,0,0.222,0.2189,0.2144,0.2113,0.2065,0.2042,0.2031,0.1981,0.1963,0.1905,0.1893,0.1854,0.1777,0.1744,0.1717,0.1662,0.1654,0.1648,0.163,0.1596,0.1591,0.1586,0.1566,0.1559,0.1643,0.1643,0.1643,0,0.221,0.2145,0.2122,0.2076,0.2048,0.2034,0.1988,0.1959,0.1899,0.1879,0.1886,0.179,0.1757,0.1689,0.1676,0.1655,0.1641,0.1654,0.1594,0.1589,0.1584,0.1564,0.1557,0.1643,0.1643,0.1643,0.1643,0,0.2136,0.2091,0.2061,0.2005,0.1973,0.1928,0.1897,0.1868,0.1856,0.1831,0.1773,0.1733,0.1681,0.1664,0.1651,0.1594,0.1599,0.16,0.1612,0.1577,0.1559,0.1551,0.1642,0.1642,0.1643,0.1643,0,0,0.209,0.2024,0.2013,0.1987,0.1935,0.1899,0.1854,0.1804,0.178,0.174,0.17,0.1636,0.1638,0.1607,0.1591,0.1562,0.1521,0.1567,0.1565,0.1559,0.1456,0.1454,0.1446,0.1516,0.1515,0.1514,0.1459,0,0.2039,0.1958,0.1936,0.1867,0.1825,0.1813,0.1773,0.1737,0.1713,0.1674,0.1648,0.1603,0.1609,0.159,0.1561,0.1532,0.15,0.1536,0.1478,0.1477,0.149,0.1436,0.1434,0.1385,0.1452,0.1451,0.145,0,0.1967,0.1927,0.1854,0.1808,0.179,0.1755,0.1708,0.1671,0.163,0.1615,0.1582,0.1569,0.1521,0.1536,0.1469,0.1495,0.147,0.1453,0.145,0.1442,0.146,0.1426,0.1369,0.1361,0.1438,0.1439,0.144,0,0.1941,0.1869,0.1816,0.1795,0.174,0.1715,0.1691,0.1651,0.1623,0.1582,0.1564,0.1517,0.1492,0.1456,0.1431,0.1445,0.1366,0.1379,0.1352,0.1352,0.1334,0.1335,0.1271,0.1321,0.1321,0.1321,0.1321,0,0.1885,0.1841,0.1803,0.1771,0.1721,0.1697,0.1648,0.1623,0.1588,0.155,0.1537,0.1501,0.1471,0.1431,0.1411,0.1359,0.1347,0.1333,0.1328,0.1334,0.1336,0.1316,0.1319,0.1319,0.1319,0.132,0.132,0,0.1846,0.1819,0.1761,0.1715,0.1702,0.1667,0.1627,0.1595,0.1573,0.1525,0.1512,0.1476,0.1429,0.1401,0.1341,0.1327,0.127,0.1266,0.1284,0.1281,0.1255,0.1257,0.1174,0.1162,0.1221,0.1221,0.122,0,0.1811,0.1777,0.1728,0.1702,0.1678,0.1637,0.1608,0.1584,0.1555,0.1506,0.148,0.1432,0.1393,0.1318,0.1286,0.1241,0.1236,0.121,0.1228,0.1236,0.1234,0.1236,0.1233,0.1206,0.1206,0.1205,0.1205,0,0.1753,0.1742,0.1702,0.1658,0.1625,0.1588,0.1552,0.1532,0.1501,0.1469,0.1422,0.1391,0.1331,0.1284,0.1236,0.1211,0.1202,0.12,0.1191,0.1195,0.1207,0.12,0.1274,0.1201,0.1202,0.1202,0.1202,0.1202,0.1714,0.1683,0.1644,0.1601,0.1571,0.1538,0.1506,0.148,0.144,0.139,0.1378,0.1328,0.1289,0.1224,0.1198,0.1158,0.1162,0.1149,0.1145,0.1142,0.1142,0.1214,0.1149,0.1149,0.1149,0.1149,0.1149,0,0.1654,0.1629,0.1589,0.154,0.1506,0.1503,0.1463,0.1434,0.1391,0.1355,0.1317,0.1263,0.1218,0.1183,0.1137,0.1112,0.1107,0.11,0.1101,0.1095,0.1141,0.1153,0.1105,0.1105,0.1105,0.1105,0.1105,0.1105,0.1619,0.1567,0.1551,0.1485,0.146,0.1412,0.1389,0.1359,0.133,0.1271,0.1234,0.1212,0.1177,0.1128,0.1086,0.1077,0.1061,0.1055,0.1045,0.1087,0.1092,0.1097,0.1108,0.1051,0.1051,0.1003,0.1002,0.1002]},{"header":{"parameterUnit":"m.s-1","parameterCategory":1,"la1":30.2991,"la2":30.254,"lo1":-89.0895,"lo2":-89.0444,"dy":0.0017,"dx":0.0017,"nx":28,"ny":28,"refTime":"2023-10-30T09:00:00:Z","depth":0,"parameterNumber":3,"parameterNumberName":"V-component_of_WINDS"},"data":[0,0,0,0,0,0,0,0,0,0,0,0,0,0,0,0,0,0,0,0,0,0,0,0,0,0,0,0,0,0,0,0,0,0,0,0,0,0,0,0,0,0,0,0,0,0,0,0,0,0,0,0,0,0,0,0,0,0,-8.3898,-8.39,0,-8.4068,-8.407,-8.4072,-8.4002,-8.3998,-8.3994,-8.399,-8.4155,-8.4163,-8.4171,0,0,0,0,0,0,0,0,0,0,0,0,0,-8.3507,-8.3515,-8.3898,-8.39,-8.3903,-8.4067,-8.407,-8.4072,-8.4002,-8.3997,-8.3993,-8.3988,-8.4153,-8.4162,-8.4172,0,0,0,0,0,0,0,0,0,0,0,0,0,-8.3677,-8.3517,-8.3898,-8.3888,-8.3889,-8.4067,-8.407,-8.4073,-8.4003,-8.3997,-8.3991,-8.3986,-8.415,-8.4161,-8.4173,-8.4369,0,0,-8.4211,-8.4216,0,0,0,0,0,0,0,0,-8.3667,-8.3691,-8.3887,-8.3889,-8.389,-8.4008,-8.3992,-8.4172,-8.4005,-8.396,-8.399,-8.3983,-8.4111,-8.4126,-8.417,-8.4377,-8.4384,-8.4212,-8.4219,-8.4225,-8.4228,0,0,0,0,0,0,0,-8.3656,-8.3683,-8.3965,-8.389,-8.3892,-8.3872,-8.389,-8.4026,-8.4066,-8.3963,-8.3958,-8.398,-8.411,-8.4159,-8.4174,-8.4387,-8.4212,-8.4222,-8.423,-8.4235,-8.4761,-8.4767,0,0,0,0,0,0,-8.3645,-8.3674,-8.396,-8.397,-8.3762,-8.3884,-8.3904,-8.3976,-8.4065,-8.4073,-8.3985,-8.3976,-8.4141,-8.4159,-8.4179,-8.4414,-8.4224,-8.4236,-8.4243,-8.4755,-8.4763,-8.477,0,0,0,0,0,0,-8.3636,-8.3671,-8.3953,-8.3821,-8.3855,-8.3898,-8.3979,-8.3982,-8.4031,-8.4081,-8.4087,-8.4028,-8.4137,-8.4162,-8.4323,-8.4419,-8.4241,-8.4253,-8.4747,-8.4757,-8.4766,-8.4885,0,0,0,0,0,0,-8.3626,-8.3668,-8.3745,-8.3823,-8.3863,-8.4096,-8.3985,-8.399,-8.4053,-8.4043,-8.4123,-8.413,-8.4134,-8.4305,-8.4335,-8.4432,-8.4262,-8.4738,-8.4751,-8.4763,-8.4873,-8.4898,-8.4919,0,0,0,0,0,-8.3612,-8.377,-8.3749,-8.3784,-8.396,-8.4102,-8.4124,-8.4127,-8.4061,-8.4137,-8.417,-8.4128,-8.4404,-8.4322,-8.4355,-8.4458,-8.4732,-8.4748,-8.4762,-8.4862,-8.4893,-8.4919,0,0,0,0,0,0,-8.3699,-8.378,-8.3758,-8.3947,-8.4019,-8.409,-8.4186,-8.416,-8.425,-8.4236,-8.4234,-8.4252,-8.4419,-8.4454,-8.4362,-8.4651,-8.4557,-8.458,-8.4622,-8.4652,-8.4675,-8.4662,-8.4272,0,0,0,0,0,-8.3741,-8.3852,-8.3916,-8.4076,-8.4114,-8.4144,-8.4206,-8.4203,-8.4275,-8.4305,-8.4349,-8.4419,-8.4521,-8.4588,-8.4685,-8.4878,-8.4893,-8.4964,-8.4987,-8.5006,-8.5025,-8.5129,-8.5161,-8.4819,-8.4819,-8.4819,0,0,-8.3827,-8.3885,-8.3955,-8.4095,-8.415,-8.4263,-8.417,-8.4293,-8.4376,-8.4322,-8.4478,-8.4513,-8.459,-8.4768,-8.4848,-8.4802,-8.5123,-8.5025,-8.504,-8.5049,-8.5147,-8.518,-8.5208,-8.4829,-8.4827,-8.4826,0,0,-8.4042,-8.4098,-8.4238,-8.4295,-8.4381,-8.44,-8.4434,-8.451,-8.4532,-8.4689,-8.465,-8.4747,-8.4924,-8.4981,-8.5033,-8.5271,-8.5235,-8.5302,-8.5423,-8.5524,-8.5551,-8.5575,-8.5658,-8.5689,-8.5321,-8.5321,-8.5321,0,-8.4138,-8.4309,-8.4312,-8.444,-8.4501,-8.4461,-8.4601,-8.4655,-8.4767,-8.481,-8.4758,-8.4979,-8.5028,-8.5218,-8.5276,-8.532,-8.5357,-8.5292,-8.5547,-8.5571,-8.5593,-8.5673,-8.5705,-8.5329,-8.5328,-8.5327,-8.5326,0,-8.4422,-8.4541,-8.4643,-8.4756,-8.4829,-8.4962,-8.4983,-8.5056,-8.5046,-8.507,-8.5229,-8.5287,-8.5395,-8.544,-8.543,-8.5629,-8.5598,-8.5547,-8.5452,-8.5634,-8.5708,-8.5739,-8.5339,-8.5337,-8.5334,-8.5333,0,0,-8.4696,-8.4809,-8.4847,-8.4897,-8.4988,-8.5079,-8.5209,-8.5317,-8.538,-8.5458,-8.5566,-8.5717,-8.5671,-8.573,-8.5726,-8.5815,-8.5998,-8.5753,-8.5754,-8.5795,-8.6218,-8.6256,-8.6291,-8.5975,-8.5981,-8.5986,-8.6211,0,-8.4918,-8.5149,-8.5156,-8.5366,-8.5476,-8.5439,-8.5551,-8.5619,-8.5645,-8.5739,-8.5766,-8.5873,-8.5804,-8.584,-8.5926,-8.5957,-8.6082,-8.5941,-8.6073,-8.6078,-8.6054,-8.633,-8.637,-8.6581,-8.6241,-8.6246,-8.6249,0,-8.5207,-8.5298,-8.552,-8.5596,-8.5642,-8.5744,-8.5843,-8.5935,-8.6009,-8.6022,-8.6089,-8.6072,-8.6202,-8.6104,-8.6283,-8.6187,-8.6241,-8.6264,-8.6272,-8.6284,-8.6174,-8.6349,-8.6648,-8.6679,-8.6296,-8.6292,-8.6289,0,-8.5384,-8.5561,-8.5717,-8.5761,-8.5854,-8.5926,-8.5968,-8.6036,-8.6101,-8.6187,-8.6228,-8.6327,-8.6381,-8.6457,-8.6467,-8.6395,-8.6646,-8.6549,-8.6658,-8.6658,-8.6711,-8.6708,-8.7023,-8.6748,-8.6747,-8.6747,-8.6746,0,-8.563,-8.5768,-8.5798,-8.5894,-8.6046,-8.6051,-8.62,-8.6236,-8.6297,-8.6397,-8.637,-8.6464,-8.6471,-8.6567,-8.6575,-8.6721,-8.6745,-8.6757,-8.6758,-8.676,-8.6758,-8.6795,-8.678,-8.6755,-8.6753,-8.6752,-8.675,0,-8.5853,-8.588,-8.6047,-8.6122,-8.6144,-8.6252,-8.6315,-8.6405,-8.6429,-8.6556,-8.6585,-8.6622,-8.6733,-8.675,-8.688,-8.6885,-8.706,-8.7045,-8.7036,-8.7034,-8.7141,-8.7131,-8.7491,-8.7537,-8.7232,-8.7235,-8.7238,0,-8.6009,-8.6114,-8.6201,-8.6267,-8.6313,-8.642,-8.6487,-8.6495,-8.6565,-8.6658,-8.6737,-8.6846,-8.6934,-8.7113,-8.7149,-8.7248,-8.7235,-8.7354,-8.7249,-8.7248,-8.7236,-8.7229,-8.7239,-8.7374,-8.7377,-8.738,-8.7382,0,-8.6281,-8.6289,-8.6388,-8.6491,-8.6572,-8.6653,-8.6729,-8.6784,-8.6802,-8.6881,-8.6997,-8.7065,-8.7199,-8.7307,-8.7405,-8.7444,-8.7416,-8.7415,-8.7446,-8.7448,-8.7438,-8.7444,-8.709,-8.7407,-8.7404,-8.7402,-8.7401,-8.74,-8.6475,-8.6566,-8.6642,-8.6752,-8.6811,-8.6883,-8.6972,-8.7008,-8.7105,-8.7216,-8.7215,-8.7341,-8.7411,-8.7541,-8.7587,-8.7684,-8.7645,-8.7689,-8.77,-8.771,-8.7721,-8.7424,-8.7701,-8.7701,-8.77,-8.77,-8.7699,0,-8.6745,-8.6793,-8.6894,-8.7003,-8.7089,-8.7058,-8.7141,-8.7214,-8.7326,-8.7396,-8.7484,-8.7615,-8.772,-8.7765,-8.7867,-8.7936,-8.7925,-8.7962,-8.7957,-8.7966,-8.775,-8.7713,-8.7969,-8.7969,-8.7969,-8.7969,-8.7969,-8.7969,-8.6896,-8.705,-8.7067,-8.7248,-8.7293,-8.7419,-8.7469,-8.7534,-8.759,-8.7739,-8.7827,-8.7857,-8.7916,-8.8022,-8.8116,-8.8126,-8.8165,-8.8208,-8.8212,-8.8009,-8.7981,-8.7955,-8.7921,-8.8216,-8.8216,-8.842,-8.8422,-8.8423]}]]